CPA259 VHHH-EGCC

Flight info

Callsign CPA259
Flight time N/A
Altitude 30100
Route BEKOL A461 SHL W22 TEPID W24 OSNOV G586 QP B330 ELKAL W179 IGNAK/K0941S0950 W179 WFX/K0935S0980 W179 OMBON W195 VIDEK/K0935S0950 W195 LAXAL/K0930S0980 W195 IDOPA W197 ANDIM B215 IBANO G470 AKLAS W192 FKG A368 SALMO/K0900S1040 A368 SARIN/K0900F340 N161 GASBI/N0492F340 N161 ABTEK/N0491F360 N161 LEYLA N644 ADEKI DCT BADIR DCT LAGAS DCT FOQUS DCT SARPI UM10 OLUPO UL851 KARDE UN644 SIN UW90 INB UL746 ODERO L746 LUGEB DCT OBCAS DCT SOBSA DCT REBLA DCT RILAS DCT BADOR DCT PITOK/N0477F380 DCT MAKAL DCT LALUK DCT KUMER DCT MIMVA DCT OTBED
Aircraft B77W/H-SDE1E2E3FGHIJ2J3J4J5M1RWXY/LB1D1

Departure

Time N/A
Airport Hong Kong International Airport (VHHH)

Arrival

Time 2026-05-07 07:15
Airport Manchester Airport (EGCC)
Time Latitude Longitude Altitude Speed Heading
2026-05-07 04:53 47.67971 21.87066 35976 ft 462 kts 301°
2026-05-07 04:53 47.69732 21.83069 35970 ft 462 kts 301°
2026-05-07 04:54 47.73241 21.75111 35968 ft 462 kts 301°
2026-05-07 04:54 47.76756 21.67126 35966 ft 461 kts 301°
2026-05-07 04:55 47.80273 21.59116 35968 ft 461 kts 300°
2026-05-07 04:55 47.83767 21.51131 35967 ft 461 kts 300°
2026-05-07 04:56 47.87257 21.43130 35964 ft 461 kts 300°
2026-05-07 04:56 47.90756 21.35086 35960 ft 461 kts 300°
2026-05-07 04:57 47.94218 21.27103 35953 ft 461 kts 300°
2026-05-07 04:57 47.97687 21.19079 35954 ft 460 kts 300°
2026-05-07 04:58 48.01149 21.11048 35957 ft 461 kts 300°
2026-05-07 04:58 48.04601 21.03017 35941 ft 461 kts 300°
2026-05-07 04:59 48.07984 20.95124 35943 ft 461 kts 300°
2026-05-07 04:59 48.11446 20.87023 35950 ft 461 kts 299°
2026-05-07 05:00 48.14885 20.78955 35944 ft 462 kts 299°
2026-05-07 05:00 48.18331 20.70826 35941 ft 463 kts 299°
2026-05-07 05:01 48.21793 20.62653 35925 ft 463 kts 299°
2026-05-07 05:01 48.25228 20.54518 35959 ft 464 kts 298°
2026-05-07 05:02 48.28696 20.46280 35923 ft 466 kts 298°
2026-05-07 05:02 48.31549 20.39480 35933 ft 464 kts 298°
2026-05-07 05:03 48.35037 20.31280 35926 ft 464 kts 299°
2026-05-07 05:03 48.38565 20.23181 35926 ft 463 kts 299°
2026-05-07 05:04 48.42073 20.15108 35937 ft 463 kts 299°
2026-05-07 05:04 48.45604 20.06928 35926 ft 463 kts 299°
2026-05-07 05:05 48.49015 19.98985 35927 ft 463 kts 298°
2026-05-07 05:05 48.52505 19.90831 35928 ft 463 kts 298°
2026-05-07 05:06 48.55984 19.82677 35938 ft 464 kts 298°
2026-05-07 05:06 48.59478 19.74465 35938 ft 465 kts 298°
2026-05-07 05:07 48.62979 19.66212 35926 ft 467 kts 298°
2026-05-07 05:07 48.66480 19.57933 35919 ft 467 kts 298°
2026-05-07 05:08 48.69986 19.49619 35936 ft 467 kts 298°
2026-05-07 05:08 48.73458 19.41359 35928 ft 468 kts 298°
2026-05-07 05:09 48.76955 19.33012 35910 ft 469 kts 298°
2026-05-07 05:09 48.80452 19.24645 35922 ft 468 kts 297°
2026-05-07 05:10 48.83933 19.16284 35907 ft 467 kts 297°
2026-05-07 05:10 48.87383 19.07971 35915 ft 467 kts 297°
2026-05-07 05:11 48.90774 18.99777 35910 ft 467 kts 297°
2026-05-07 05:11 48.94217 18.91437 35912 ft 466 kts 297°
2026-05-07 05:12 48.97632 18.83124 35899 ft 466 kts 297°
2026-05-07 05:12 49.01071 18.74733 35892 ft 467 kts 297°
2026-05-07 05:13 49.04499 18.66343 35897 ft 469 kts 297°
2026-05-07 05:13 49.07949 18.57876 35897 ft 470 kts 297°
2026-05-07 05:14 49.11402 18.49371 35894 ft 471 kts 297°
2026-05-07 05:14 49.14835 18.40888 35917 ft 472 kts 296°
2026-05-07 05:15 49.18288 18.32330 35905 ft 472 kts 296°
2026-05-07 05:15 49.21729 18.23769 35896 ft 473 kts 296°
2026-05-07 05:16 49.25148 18.15242 35895 ft 472 kts 296°
2026-05-07 05:16 49.28547 18.06640 35877 ft 470 kts 296°
2026-05-07 05:17 49.31838 17.98233 35885 ft 470 kts 295°
2026-05-07 05:17 49.35185 17.89654 35882 ft 469 kts 295°
2026-05-07 05:18 49.38536 17.81046 35886 ft 470 kts 295°
2026-05-07 05:18 49.41887 17.72416 35880 ft 470 kts 295°
2026-05-07 05:19 49.45215 17.63819 35882 ft 471 kts 295°
2026-05-07 05:19 49.48560 17.55152 35879 ft 472 kts 295°
2026-05-07 05:20 49.51915 17.46428 35876 ft 472 kts 295°
2026-05-07 05:20 49.55241 17.37752 35875 ft 472 kts 295°
2026-05-07 05:21 49.60249 17.24631 35878 ft 473 kts 294°
2026-05-07 05:22 49.63557 17.15928 35877 ft 473 kts 294°
2026-05-07 05:22 49.66884 17.07147 35877 ft 472 kts 294°
2026-05-07 05:23 49.70115 16.98591 35877 ft 472 kts 294°
2026-05-07 05:23 49.73401 16.89859 35889 ft 472 kts 294°
2026-05-07 05:24 49.76693 16.81080 35886 ft 473 kts 294°
2026-05-07 05:24 49.79987 16.72268 35881 ft 473 kts 294°
2026-05-07 05:25 49.83286 16.63410 35882 ft 474 kts 294°
2026-05-07 05:25 49.86563 16.54585 35857 ft 474 kts 294°
2026-05-07 05:26 49.89856 16.45683 35878 ft 475 kts 294°
2026-05-07 05:26 49.93134 16.36796 35877 ft 475 kts 293°
2026-05-07 05:27 49.96411 16.27877 35875 ft 476 kts 293°
2026-05-07 05:27 49.99671 16.18977 35880 ft 476 kts 293°
2026-05-07 05:28 50.02929 16.10048 35887 ft 477 kts 293°
2026-05-07 05:28 50.06202 16.01047 35877 ft 477 kts 293°
2026-05-07 05:29 50.09373 15.92300 35884 ft 477 kts 293°
2026-05-07 05:29 50.12641 15.83253 35884 ft 477 kts 293°
2026-05-07 05:30 50.15869 15.74286 35910 ft 477 kts 293°
2026-05-07 05:30 50.19104 15.65266 35886 ft 476 kts 293°
2026-05-07 05:31 50.22334 15.56230 35879 ft 475 kts 293°
2026-05-07 05:31 50.25545 15.47213 35859 ft 475 kts 293°
2026-05-07 05:32 50.28744 15.38197 35854 ft 474 kts 293°
2026-05-07 05:32 50.31939 15.29161 35868 ft 474 kts 293°
2026-05-07 05:33 50.35115 15.20149 35859 ft 474 kts 293°
2026-05-07 05:33 50.36713 15.15598 35973 ft 476 kts 293°
2026-05-07 05:33 50.38300 15.11074 36323 ft 475 kts 293°
2026-05-07 05:33 50.39893 15.06528 36732 ft 472 kts 294°
2026-05-07 05:34 50.41458 15.02055 37114 ft 469 kts 294°
2026-05-07 05:34 50.42950 14.97782 37447 ft 468 kts 294°
2026-05-07 05:34 50.44504 14.93322 37758 ft 468 kts 294°
2026-05-07 05:35 50.47637 14.84297 37857 ft 471 kts 294°
2026-05-07 05:35 50.50746 14.75321 37846 ft 467 kts 294°
2026-05-07 05:36 50.53841 14.66352 37848 ft 464 kts 294°
2026-05-07 05:36 50.56867 14.57550 37867 ft 463 kts 294°
2026-05-07 05:37 50.59932 14.48598 37860 ft 464 kts 294°
2026-05-07 05:37 50.62993 14.39630 37861 ft 466 kts 294°
2026-05-07 05:38 50.66054 14.30627 37861 ft 468 kts 294°
2026-05-07 05:38 50.69130 14.21551 37859 ft 470 kts 294°
2026-05-07 05:39 50.72193 14.12480 37874 ft 472 kts 294°
2026-05-07 05:39 50.75298 14.03248 37861 ft 474 kts 294°
2026-05-07 05:40 50.78294 13.94313 37857 ft 475 kts 294°
2026-05-07 05:40 50.81228 13.84926 37857 ft 473 kts 288°
2026-05-07 05:41 50.83590 13.75233 37857 ft 472 kts 287°
2026-05-07 05:41 50.85879 13.65561 37873 ft 471 kts 287°
2026-05-07 05:42 50.88191 13.55850 37861 ft 471 kts 287°
2026-05-07 05:42 50.90513 13.46146 37867 ft 470 kts 287°
2026-05-07 05:43 50.92823 13.36472 37860 ft 470 kts 287°
2026-05-07 05:43 50.95128 13.26778 37874 ft 470 kts 287°
2026-05-07 05:44 50.97428 13.17055 37866 ft 470 kts 287°
2026-05-07 05:44 50.99706 13.07380 37869 ft 470 kts 287°
2026-05-07 05:45 51.01926 12.97908 37872 ft 471 kts 287°
2026-05-07 05:45 51.04206 12.88139 37883 ft 471 kts 287°
2026-05-07 05:46 51.06478 12.78358 37887 ft 472 kts 287°
2026-05-07 05:46 51.08742 12.68568 37885 ft 473 kts 287°
2026-05-07 05:47 51.11009 12.58723 37882 ft 473 kts 287°
2026-05-07 05:47 51.13250 12.48940 37882 ft 473 kts 287°
2026-05-07 05:48 51.15507 12.39043 37899 ft 474 kts 287°
2026-05-07 05:48 51.17740 12.29208 37878 ft 474 kts 287°
2026-05-07 05:49 51.19980 12.19288 37890 ft 474 kts 287°
2026-05-07 05:49 51.22210 12.09374 37884 ft 475 kts 287°
2026-05-07 05:50 51.24375 11.99703 37888 ft 475 kts 287°
2026-05-07 05:50 51.26211 11.91467 37898 ft 475 kts 287°
2026-05-07 05:51 51.28420 11.81511 37899 ft 475 kts 287°
2026-05-07 05:51 51.30623 11.71535 37905 ft 476 kts 287°
2026-05-07 05:52 51.32814 11.61566 37912 ft 476 kts 287°
2026-05-07 05:52 51.35003 11.51555 37916 ft 476 kts 287°
2026-05-07 05:53 51.37177 11.41567 37908 ft 476 kts 287°
2026-05-07 05:53 51.39349 11.31541 37910 ft 476 kts 287°
2026-05-07 05:54 51.41498 11.21568 37914 ft 476 kts 287°
2026-05-07 05:54 51.43643 11.11564 37915 ft 476 kts 287°
2026-05-07 05:55 51.45800 11.01458 37905 ft 476 kts 287°
2026-05-07 05:55 51.47871 10.91703 37908 ft 476 kts 287°
2026-05-07 05:56 51.49987 10.81690 37907 ft 476 kts 287°
2026-05-07 05:56 51.52114 10.71571 37914 ft 475 kts 287°
2026-05-07 05:57 51.54263 10.61538 37921 ft 476 kts 289°
2026-05-07 05:57 51.56699 10.51705 37908 ft 477 kts 290°
2026-05-07 05:58 51.59225 10.41821 37911 ft 477 kts 290°
2026-05-07 05:58 51.61728 10.31919 37904 ft 476 kts 290°
2026-05-07 05:59 51.64180 10.22084 37919 ft 476 kts 290°
2026-05-07 05:59 51.66637 10.12150 37916 ft 477 kts 290°
2026-05-07 06:00 51.69070 10.02264 37919 ft 476 kts 290°
2026-05-07 06:00 51.71451 9.92556 37918 ft 476 kts 289°
2026-05-07 06:01 51.73879 9.82606 37931 ft 476 kts 289°
2026-05-07 06:01 51.76282 9.72718 37939 ft 476 kts 289°
2026-05-07 06:02 51.78699 9.62727 37932 ft 475 kts 289°
2026-05-07 06:02 51.81080 9.52840 37933 ft 475 kts 289°
2026-05-07 06:03 51.83464 9.42896 37931 ft 476 kts 289°
2026-05-07 06:03 51.85853 9.32886 37932 ft 476 kts 289°
2026-05-07 06:04 51.88220 9.22922 37937 ft 476 kts 289°
2026-05-07 06:04 51.90588 9.12902 37943 ft 477 kts 289°
2026-05-07 06:05 51.92960 9.02827 37944 ft 477 kts 289°
2026-05-07 06:05 51.95261 8.93001 37956 ft 477 kts 289°
2026-05-07 06:06 51.97603 8.82960 37950 ft 477 kts 289°
2026-05-07 06:06 51.99936 8.72904 37959 ft 477 kts 289°
2026-05-07 06:07 52.02269 8.62804 37961 ft 477 kts 289°
2026-05-07 06:07 52.04589 8.52716 37961 ft 476 kts 289°
2026-05-07 06:08 52.06882 8.42691 37966 ft 476 kts 289°
2026-05-07 06:08 52.09181 8.32595 37972 ft 475 kts 289°
2026-05-07 06:09 52.11474 8.22476 37979 ft 475 kts 289°
2026-05-07 06:09 52.13745 8.12407 37978 ft 475 kts 289°
2026-05-07 06:10 52.16017 8.02285 37987 ft 475 kts 289°
2026-05-07 06:10 52.18222 7.92415 37993 ft 475 kts 288°
2026-05-07 06:11 52.20464 7.82329 37998 ft 475 kts 289°
2026-05-07 06:11 52.22708 7.72186 37996 ft 475 kts 288°
2026-05-07 06:12 52.24934 7.62073 37990 ft 475 kts 288°
2026-05-07 06:12 52.27150 7.51961 37993 ft 475 kts 288°
2026-05-07 06:13 52.29366 7.41797 38017 ft 474 kts 288°
2026-05-07 06:13 52.31567 7.31643 38012 ft 474 kts 288°
2026-05-07 06:14 52.33768 7.21441 37999 ft 474 kts 288°
2026-05-07 06:14 52.35943 7.11311 38013 ft 474 kts 288°
2026-05-07 06:15 52.38125 7.01110 38012 ft 474 kts 288°
2026-05-07 06:15 52.40246 6.91144 38021 ft 474 kts 288°
2026-05-07 06:16 52.42394 6.80992 38016 ft 474 kts 288°
2026-05-07 06:16 52.44550 6.70756 38021 ft 474 kts 288°
2026-05-07 06:17 52.46689 6.60544 38018 ft 474 kts 288°
2026-05-07 06:17 52.48824 6.50298 38020 ft 474 kts 288°
2026-05-07 06:18 52.50937 6.40113 38010 ft 474 kts 288°
2026-05-07 06:18 52.53044 6.29878 38034 ft 473 kts 288°
2026-05-07 06:19 52.55145 6.19645 38029 ft 473 kts 288°
2026-05-07 06:19 52.57233 6.09425 38031 ft 473 kts 288°
2026-05-07 06:20 52.59274 5.99381 38041 ft 473 kts 288°
2026-05-07 06:20 52.61344 5.89139 38026 ft 473 kts 288°
2026-05-07 06:21 52.63404 5.78888 38032 ft 473 kts 287°
2026-05-07 06:21 52.65469 5.68564 38034 ft 472 kts 287°
2026-05-07 06:22 52.67513 5.58287 38042 ft 472 kts 287°
2026-05-07 06:22 52.70554 5.42899 38042 ft 472 kts 287°
2026-05-07 06:23 52.72568 5.32640 38046 ft 472 kts 287°
2026-05-07 06:23 52.74588 5.22296 38050 ft 472 kts 287°
2026-05-07 06:24 52.76585 5.12009 38049 ft 472 kts 287°
2026-05-07 06:24 52.78583 5.01669 38051 ft 472 kts 287°
2026-05-07 06:25 52.80524 4.91568 38049 ft 472 kts 287°
2026-05-07 06:25 52.82500 4.81223 38044 ft 472 kts 287°
2026-05-07 06:26 52.84457 4.70926 38047 ft 472 kts 287°
2026-05-07 06:26 52.86421 4.60536 38043 ft 472 kts 287°
2026-05-07 06:27 52.88368 4.50176 38049 ft 472 kts 287°
2026-05-07 06:27 52.90313 4.39773 38054 ft 472 kts 287°
2026-05-07 06:28 52.92248 4.29362 38049 ft 472 kts 287°
2026-05-07 06:28 52.94170 4.18972 38071 ft 472 kts 286°
2026-05-07 06:29 52.96069 4.08631 38056 ft 472 kts 287°
2026-05-07 06:29 52.97935 3.98423 38061 ft 472 kts 287°
2026-05-07 06:30 52.99830 3.87985 38074 ft 471 kts 287°
2026-05-07 06:30 53.01701 3.77639 38077 ft 471 kts 286°
2026-05-07 06:31 53.03575 3.67208 38078 ft 471 kts 286°
2026-05-07 06:31 53.05442 3.56766 38084 ft 471 kts 286°
2026-05-07 06:32 53.07299 3.46315 38084 ft 471 kts 286°
2026-05-07 06:32 53.09136 3.35886 38069 ft 472 kts 286°
2026-05-07 06:33 53.10932 3.25376 38062 ft 473 kts 284°
2026-05-07 06:33 53.12478 3.14739 38067 ft 473 kts 283°
2026-05-07 06:34 53.13965 3.04087 38073 ft 472 kts 283°
2026-05-07 06:34 53.15438 2.93678 38075 ft 473 kts 283°
2026-05-07 06:35 53.16955 2.83020 38078 ft 473 kts 283°
2026-05-07 06:35 53.18470 2.72356 38076 ft 473 kts 283°
2026-05-07 06:36 53.19965 2.61759 38073 ft 473 kts 283°
2026-05-07 06:36 53.21462 2.51075 38074 ft 473 kts 283°
2026-05-07 06:37 53.22947 2.40379 38086 ft 473 kts 283°
2026-05-07 06:37 53.24424 2.29675 38078 ft 473 kts 283°
2026-05-07 06:38 53.25645 2.20766 38082 ft 473 kts 283°
2026-05-07 06:38 53.27103 2.10057 38080 ft 473 kts 283°
2026-05-07 06:39 53.28743 1.97919 38080 ft 473 kts 283°
2026-05-07 06:39 53.29950 1.88919 38087 ft 473 kts 283°
2026-05-07 06:40 53.31380 1.78181 38087 ft 473 kts 283°
2026-05-07 06:40 53.32792 1.67500 38087 ft 474 kts 282°
2026-05-07 06:41 53.34207 1.56721 38089 ft 474 kts 282°
2026-05-07 06:41 53.35616 1.45925 38085 ft 474 kts 282°
2026-05-07 06:42 53.37011 1.35099 38086 ft 475 kts 282°
2026-05-07 06:42 53.38390 1.24342 38089 ft 475 kts 282°
2026-05-07 06:43 53.39769 1.13517 38082 ft 475 kts 282°
2026-05-07 06:43 53.41140 1.02667 38089 ft 475 kts 282°
2026-05-07 06:44 53.42469 0.92063 38087 ft 475 kts 282°
2026-05-07 06:44 53.43813 0.81254 38082 ft 475 kts 282°
2026-05-07 06:45 53.45151 0.70409 37969 ft 477 kts 282°
2026-05-07 06:45 53.45830 0.64879 37116 ft 487 kts 282°
2026-05-07 06:45 53.46505 0.59349 36459 ft 484 kts 282°
2026-05-07 06:46 53.47175 0.53838 35728 ft 483 kts 283°
2026-05-07 06:46 53.47837 0.48352 34885 ft 484 kts 283°
2026-05-07 06:46 53.48510 0.42787 34067 ft 485 kts 283°
2026-05-07 06:46 53.49181 0.37193 33053 ft 487 kts 283°
2026-05-07 06:47 53.49844 0.31646 32118 ft 487 kts 283°
2026-05-07 06:47 53.50503 0.26109 31156 ft 488 kts 282°
2026-05-07 06:47 53.51170 0.20489 30369 ft 485 kts 282°
2026-05-07 06:47 53.51819 0.15004 29662 ft 479 kts 282°
2026-05-07 06:48 53.52461 0.09525 28971 ft 472 kts 282°
2026-05-07 06:48 53.52988 0.04107 28434 ft 465 kts 279°
2026-05-07 06:48 53.53377 -0.00996 27929 ft 459 kts 277°
2026-05-07 06:48 53.53737 -0.06264 27398 ft 456 kts 277°
2026-05-07 06:49 53.54092 -0.11590 26861 ft 456 kts 277°
2026-05-07 06:49 53.54452 -0.16843 26335 ft 455 kts 277°
2026-05-07 06:49 53.54828 -0.22164 25809 ft 453 kts 277°
2026-05-07 06:49 53.55204 -0.27370 25287 ft 451 kts 277°
2026-05-07 06:50 53.55582 -0.32576 24778 ft 448 kts 277°
2026-05-07 06:50 53.55956 -0.37752 24263 ft 446 kts 277°
2026-05-07 06:50 53.56329 -0.42933 23750 ft 443 kts 277°
2026-05-07 06:50 53.56693 -0.48055 23162 ft 440 kts 277°
2026-05-07 06:51 53.57053 -0.53143 22604 ft 435 kts 277°
2026-05-07 06:51 53.57407 -0.58177 22099 ft 428 kts 277°
2026-05-07 06:51 53.57752 -0.63111 21604 ft 422 kts 277°
2026-05-07 06:51 53.58090 -0.67986 21110 ft 416 kts 277°
2026-05-07 06:52 53.58421 -0.72790 20629 ft 411 kts 277°
2026-05-07 06:52 53.58747 -0.77543 20155 ft 406 kts 276°
2026-05-07 06:52 53.59067 -0.82243 19695 ft 402 kts 276°
2026-05-07 06:52 53.59380 -0.86892 19228 ft 398 kts 276°
2026-05-07 06:53 53.59691 -0.91506 18774 ft 395 kts 276°
2026-05-07 06:53 53.59999 -0.96097 18313 ft 392 kts 276°
2026-05-07 06:53 53.60287 -1.00414 17823 ft 390 kts 276°
2026-05-07 06:53 53.60586 -1.04930 17349 ft 386 kts 276°
2026-05-07 06:54 53.60898 -1.09403 16949 ft 382 kts 278°
2026-05-07 06:54 53.61390 -1.13757 16755 ft 378 kts 282°
2026-05-07 06:54 53.61993 -1.18044 16549 ft 383 kts 283°
2026-05-07 06:54 53.62638 -1.22418 16327 ft 386 kts 283°
2026-05-07 06:55 53.63279 -1.26800 16091 ft 384 kts 283°
2026-05-07 06:55 53.63904 -1.31176 15867 ft 382 kts 283°
2026-05-07 06:55 53.64501 -1.35460 15642 ft 380 kts 283°
2026-05-07 06:55 53.65096 -1.39795 15421 ft 378 kts 282°
2026-05-07 06:56 53.65680 -1.44105 15199 ft 376 kts 282°
2026-05-07 06:56 53.66259 -1.48406 14980 ft 375 kts 282°
2026-05-07 06:56 53.66832 -1.52691 14764 ft 374 kts 282°
2026-05-07 06:56 53.67394 -1.56902 14552 ft 372 kts 282°
2026-05-07 06:57 53.67964 -1.61163 14339 ft 371 kts 282°
2026-05-07 06:57 53.68525 -1.65411 14121 ft 369 kts 282°
2026-05-07 06:57 53.69081 -1.69641 13898 ft 368 kts 282°
2026-05-07 06:57 53.69633 -1.73837 13685 ft 366 kts 282°
2026-05-07 06:58 53.70184 -1.78021 13442 ft 365 kts 282°
2026-05-07 06:58 53.70733 -1.82203 13221 ft 364 kts 282°
2026-05-07 06:58 53.71278 -1.86367 13013 ft 362 kts 282°
2026-05-07 06:58 53.71813 -1.90467 12796 ft 361 kts 282°
2026-05-07 06:59 53.72351 -1.94610 12602 ft 361 kts 282°
2026-05-07 06:59 53.72889 -1.98754 12392 ft 360 kts 282°
2026-05-07 06:59 53.73395 -2.02668 12190 ft 360 kts 282°
2026-05-07 06:59 53.73928 -2.06803 11975 ft 359 kts 282°
2026-05-07 07:00 53.74395 -2.10920 11753 ft 352 kts 274°
2026-05-07 07:00 53.74354 -2.15067 11578 ft 355 kts 265°
2026-05-07 07:00 53.74140 -2.19245 11364 ft 358 kts 264°
2026-05-07 07:00 53.73931 -2.23350 11176 ft 350 kts 264°
2026-05-07 07:01 53.73739 -2.27402 10956 ft 340 kts 265°
2026-05-07 07:01 53.73565 -2.31343 10744 ft 330 kts 265°
2026-05-07 07:01 53.73404 -2.35168 10548 ft 321 kts 265°
2026-05-07 07:01 53.73252 -2.38853 10368 ft 312 kts 265°
2026-05-07 07:02 53.73106 -2.42445 10188 ft 303 kts 265°
2026-05-07 07:02 53.72963 -2.45929 10017 ft 295 kts 265°
2026-05-07 07:02 53.72821 -2.49350 9958 ft 283 kts 265°
2026-05-07 07:02 53.72703 -2.52612 9697 ft 274 kts 270°
2026-05-07 07:03 53.73156 -2.55637 9587 ft 271 kts 298°
2026-05-07 07:03 53.74419 -2.58037 9463 ft 274 kts 323°
2026-05-07 07:03 53.76148 -2.59343 9302 ft 279 kts 347°
2026-05-07 07:03 53.78074 -2.59345 9117 ft 282 kts 13°
2026-05-07 07:04 53.79849 -2.57895 8960 ft 283 kts 40°
2026-05-07 07:04 53.81031 -2.55272 8794 ft 282 kts 68°
2026-05-07 07:04 53.81388 -2.52080 8636 ft 280 kts 95°
2026-05-07 07:04 53.80939 -2.48909 8473 ft 275 kts 118°
2026-05-07 07:05 53.79919 -2.46218 8389 ft 267 kts 127°
2026-05-07 07:05 53.78860 -2.43679 8309 ft 264 kts 127°
2026-05-07 07:05 53.77813 -2.41177 8173 ft 261 kts 127°
2026-05-07 07:05 53.76723 -2.38739 7981 ft 254 kts 139°
2026-05-07 07:06 53.75219 -2.37306 7837 ft 246 kts 169°
2026-05-07 07:06 53.73539 -2.36809 7691 ft 249 kts 173°
2026-05-07 07:06 53.71816 -2.36329 7530 ft 254 kts 172°
2026-05-07 07:06 53.70114 -2.35512 7282 ft 254 kts 154°
2026-05-07 07:07 53.68624 -2.34009 7051 ft 246 kts 150°
2026-05-07 07:07 53.67205 -2.32498 6748 ft 233 kts 150°
2026-05-07 07:07 53.65892 -2.31088 6477 ft 220 kts 150°
2026-05-07 07:07 53.64625 -2.29717 6171 ft 213 kts 150°
2026-05-07 07:08 53.63386 -2.28378 6107 ft 212 kts 150°
2026-05-07 07:08 53.62115 -2.27008 5919 ft 218 kts 150°
2026-05-07 07:08 53.60831 -2.25625 5715 ft 219 kts 150°
2026-05-07 07:08 53.59569 -2.24267 5488 ft 215 kts 150°
2026-05-07 07:09 53.58314 -2.22919 5276 ft 209 kts 150°
2026-05-07 07:09 53.57117 -2.21627 5057 ft 203 kts 150°
2026-05-07 07:09 53.55951 -2.20369 4811 ft 198 kts 150°
2026-05-07 07:09 53.54776 -2.19103 4509 ft 199 kts 150°
2026-05-07 07:10 53.53619 -2.17856 4201 ft 198 kts 150°
2026-05-07 07:10 53.52459 -2.16606 3904 ft 196 kts 150°
2026-05-07 07:10 53.51323 -2.15376 3636 ft 193 kts 150°
2026-05-07 07:10 53.50205 -2.14162 3368 ft 190 kts 150°
2026-05-07 07:11 53.49099 -2.12958 3114 ft 185 kts 150°
2026-05-07 07:11 53.48049 -2.11814 3041 ft 182 kts 150°
2026-05-07 07:11 53.46933 -2.10717 2942 ft 187 kts 163°
2026-05-07 07:11 53.45666 -2.10662 2724 ft 185 kts 193°
2026-05-07 07:12 53.44402 -2.11074 2600 ft 182 kts 191°
2026-05-07 07:12 53.43300 -2.11885 2501 ft 174 kts 220°
2026-05-07 07:12 53.42433 -2.13345 2274 ft 177 kts 222°
2026-05-07 07:12 53.41571 -2.14803 2022 ft 173 kts 225°
2026-05-07 07:13 53.40817 -2.16289 1776 ft 165 kts 227°
2026-05-07 07:13 53.40110 -2.17751 1569 ft 158 kts 228°
2026-05-07 07:13 53.39426 -2.19161 1336 ft 153 kts 228°
2026-05-07 07:13 53.38761 -2.20530 1121 ft 148 kts 228°
2026-05-07 07:14 53.38118 -2.21858 948 ft 146 kts 229°
2026-05-07 07:14 53.37476 -2.23180 723 ft 147 kts 230°
2026-05-07 07:14 53.36829 -2.24514 480 ft 145 kts 223°
2026-05-07 07:14 53.36180 -2.25786 314 ft 143 kts 232°
2026-05-07 07:15 53.35579 -2.27059 262 ft 131 kts 227°
2026-05-07 07:15 53.35136 -2.27987 238 ft 65 kts 231°
2026-05-07 07:15 53.34958 -2.28491 238 ft 36 kts 259°
2026-05-07 07:15 53.34987 -2.28732 237 ft 19 kts 350°
2026-05-07 07:16 53.35087 -2.28598 238 ft 19 kts 48°
2026-05-07 07:16 53.35174 -2.28420 237 ft 20 kts 50°
2026-05-07 07:16 53.35248 -2.28271 237 ft 14 kts 51°
2026-05-07 07:16 53.35314 -2.28151 239 ft 14 kts 46°
2026-05-07 07:17 53.35384 -2.28035 241 ft 14 kts 44°
2026-05-07 07:17 53.35460 -2.27933 243 ft 14 kts 25°
2026-05-07 07:17 53.35564 -2.27905 242 ft 16 kts
2026-05-07 07:17 53.35676 -2.27884 248 ft 16 kts
2026-05-07 07:18 53.35789 -2.27867 254 ft 16 kts
2026-05-07 07:18 53.35901 -2.27847 260 ft 16 kts
2026-05-07 07:18 53.36003 -2.27915 260 ft 16 kts 320°
2026-05-07 07:18 53.36087 -2.28044 260 ft 16 kts 319°
2026-05-07 07:19 53.36168 -2.28171 260 ft 16 kts 315°
2026-05-07 07:19 53.36248 -2.28306 260 ft 14 kts 314°
2026-05-07 07:19 53.36318 -2.28425 260 ft 14 kts 316°
2026-05-07 07:19 53.36399 -2.28482 260 ft 13 kts 343°
2026-05-07 07:20 53.36470 -2.28571 260 ft 13 kts 314°
2026-05-07 07:20 53.36533 -2.28678 260 ft 13 kts 315°
2026-05-07 07:20 53.36592 -2.28770 260 ft 10 kts 330°
2026-05-07 07:20 53.36654 -2.28735 260 ft 11 kts 41°
2026-05-07 07:21 53.36689 -2.28687 260 ft 5 kts 26°
2026-05-07 07:21 53.36722 -2.28700 260 ft 5 kts 330°
2026-05-07 07:21 53.36749 -2.28744 260 ft 6 kts 314°
2026-05-07 07:21 53.36758 -2.28760 260 ft 0 kts 314°